Time[GMT],temperature[C](51m),dissolved_oxygen[ml/l](51m),oxygen_saturation[ml/l](51m),percent_oxygen_saturation[%](51m)
2017-12-08 02:00,8.79,5.737,6.5867,87.10
2017-12-08 03:00,8.72,4.940,6.5953,74.90
2017-12-08 04:00,8.74,4.947,6.5954,75.00
2017-12-08 05:00,8.74,4.978,6.5933,75.50
2017-12-08 06:00,8.76,5.112,6.5880,77.60
2017-12-08 07:00,8.77,5.020,6.5885,76.20
2017-12-08 08:00,8.77,5.050,6.5835,76.70
2017-12-08 09:00,8.82,5.137,6.5858,78.00
2017-12-08 10:00,8.82,5.159,6.5807,78.40
2017-12-08 11:00,8.92,5.408,6.5629,82.40
2017-12-08 12:00,8.78,5.097,6.5848,77.40
2017-12-08 13:00,8.75,5.050,6.5921,76.60
2017-12-08 14:00,8.74,5.052,6.5951,76.60
2017-12-08 15:00,8.74,5.052,6.5951,76.60
2017-12-08 16:00,8.75,5.079,6.5871,77.10
2017-12-08 17:00,8.75,5.083,6.5930,77.10
2017-12-08 18:00,8.77,5.117,6.5853,77.70
2017-12-08 19:00,8.79,5.193,6.5816,78.90
2017-12-08 20:00,8.75,5.099,6.5962,77.30
2017-12-08 21:00,8.75,5.083,6.5930,77.10
2017-12-08 22:00,8.76,5.097,6.5933,77.30
2017-12-08 23:00,8.75,5.083,6.5930,77.10
2017-12-09 00:00,8.75,5.083,6.5930,77.10
2017-12-09 01:00,8.87,5.654,6.5746,86.00
2017-12-09 02:00,8.82,5.370,6.5806,81.60
2017-12-09 03:00,8.78,5.144,6.5860,78.10
2017-12-09 04:00,8.81,5.291,6.5814,80.40
2017-12-09 05:00,8.82,5.356,6.5803,81.40
2017-12-09 06:00,8.81,5.260,6.5833,79.90
2017-12-09 07:00,8.82,5.370,6.5806,81.60
2017-12-09 08:00,8.83,5.329,6.5796,81.00
2017-12-09 09:00,8.82,5.305,6.5817,80.60
2017-12-09 10:00,8.82,5.287,6.5840,80.30
2017-12-09 11:00,8.84,5.889,6.5802,89.50
2017-12-09 12:00,8.84,5.448,6.5799,82.80
2017-12-09 13:00,8.83,5.294,6.5842,80.40
2017-12-09 14:00,8.80,5.157,6.5863,78.30
2017-12-09 15:00,8.85,5.327,6.5768,81.00
2017-12-09 16:00,8.83,5.289,6.5786,80.40
2017-12-09 17:00,8.82,5.289,6.5786,80.40
2017-12-09 18:00,8.79,5.206,6.5820,79.10
2017-12-09 19:00,8.83,5.316,6.5793,80.80
2017-12-09 20:00,8.80,5.916,6.5808,89.90
2017-12-09 21:00,8.82,5.869,6.5798,89.20
2017-12-09 22:00,8.84,5.865,6.5821,89.10
2017-12-09 23:00,8.80,6.218,6.5874,94.40
2017-12-10 00:00,8.73,6.283,6.5933,95.30
2017-12-10 01:00,8.84,5.885,6.5826,89.40
2017-12-10 02:00,8.80,5.934,6.5861,90.10
2017-12-10 03:00,8.82,5.860,6.5771,89.10
2017-12-10 04:00,8.83,5.634,6.5741,85.70
2017-12-10 05:00,,,,
2017-12-10 06:00,8.83,5.930,6.5811,90.10
2017-12-10 07:00,8.80,5.847,6.5842,88.80
2017-12-10 08:00,8.77,5.956,6.5890,90.40
2017-12-10 09:00,8.65,6.290,6.6073,95.20
2017-12-10 10:00,8.65,6.306,6.6099,95.40
2017-12-10 11:00,8.61,6.321,6.6124,95.60
2017-12-10 12:00,8.62,6.337,6.6081,95.90
2017-12-10 13:00,8.64,6.339,6.6104,95.90
2017-12-10 14:00,8.76,5.896,6.5877,89.50
2017-12-10 15:00,8.78,6.068,6.5890,92.10
2017-12-10 16:00,8.76,6.115,6.5900,92.80
2017-12-10 17:00,8.78,6.189,6.5914,93.90
2017-12-10 18:00,8.78,6.266,6.5883,95.10
2017-12-10 19:00,8.78,6.274,6.5839,95.30
2017-12-10 20:00,8.80,6.006,6.5853,91.20
2017-12-10 21:00,8.80,6.109,6.5827,92.80
2017-12-10 22:00,8.76,6.304,6.5937,95.60
2017-12-10 23:00,8.77,6.286,6.5887,95.40
2017-12-11 00:00,8.78,6.266,6.5883,95.10
2017-12-11 01:00,8.77,6.274,6.5908,95.20
2017-12-11 02:00,8.67,6.272,6.6023,95.00
2017-12-11 03:00,8.78,6.189,6.5844,94.00
2017-12-11 04:00,8.81,6.071,6.5843,92.20
2017-12-11 05:00,,,,
2017-12-11 06:00,,,,
2017-12-11 07:00,8.78,6.115,6.5900,92.80
2017-12-11 08:00,8.76,6.162,6.5909,93.50
2017-12-11 09:00,8.72,6.223,6.5991,94.30
2017-12-11 10:00,8.72,6.216,6.5920,94.30
2017-12-11 11:00,8.73,6.203,6.5917,94.10
2017-12-11 12:00,,0.394,0.1682,
2017-12-11 13:00,8.69,6.263,6.5999,94.90
2017-12-11 14:00,8.66,6.214,6.6036,94.10
2017-12-11 15:00,8.67,6.270,6.6069,94.90
2017-12-11 16:00,8.67,6.268,6.6046,94.90
2017-12-11 17:00,8.70,6.234,6.5970,94.50
2017-12-11 18:00,8.70,6.234,6.5970,94.50
2017-12-11 19:00,8.69,6.243,6.5995,94.60
2017-12-11 20:00,8.67,6.234,6.6040,94.40
2017-12-11 21:00,8.66,6.268,6.6046,94.90
2017-12-11 22:00,8.64,6.286,6.6095,95.10
2017-12-11 23:00,8.65,6.268,6.6046,94.90
2017-12-12 00:00,8.64,6.270,6.6069,94.90
2017-12-12 01:00,8.64,6.259,6.6091,94.70
2017-12-12 02:00,8.59,6.360,6.6176,96.10
2017-12-12 03:00,8.63,6.261,6.6114,94.70
2017-12-12 04:00,8.64,6.210,6.6059,94.00
2017-12-12 05:00,8.70,6.104,6.5992,92.50
2017-12-12 06:00,8.70,6.131,6.5997,92.90
2017-12-12 07:00,8.69,6.122,6.5972,92.80
2017-12-12 08:00,8.66,6.149,6.6048,93.10
2017-12-12 09:00,8.64,6.196,6.6056,93.80
2017-12-12 10:00,8.63,6.216,6.6130,94.00
2017-12-12 11:00,8.64,6.203,6.6058,93.90
2017-12-12 12:00,8.68,6.151,6.6001,93.20
2017-12-12 13:00,8.66,6.187,6.6031,93.70
2017-12-12 14:00,8.66,6.160,6.6026,93.30
2017-12-12 15:00,8.67,6.149,6.6048,93.10
2017-12-12 16:00,8.69,6.073,6.6010,92.00
2017-12-12 17:00,8.70,6.059,6.6008,91.80
2017-12-12 18:00,8.69,6.075,6.6034,92.00
2017-12-12 19:00,8.70,6.068,6.5961,92.00
2017-12-12 20:00,8.70,6.098,6.5991,92.40
2017-12-12 21:00,8.70,6.086,6.6013,92.20
2017-12-12 22:00,8.68,6.136,6.6046,92.90
2017-12-12 23:00,8.64,6.176,6.6053,93.50
2017-12-13 00:00,8.66,6.129,6.6044,92.80
2017-12-13 01:00,8.67,6.124,6.5996,92.80
2017-12-13 02:00,8.67,6.127,6.6020,92.80
2017-12-13 03:00,8.64,6.176,6.6053,93.50
2017-12-13 04:00,8.64,6.109,6.6112,92.40
2017-12-13 05:00,8.63,6.174,6.6100,93.40
2017-12-13 06:00,8.57,6.248,6.6182,94.40
2017-12-13 07:00,8.57,6.254,6.6183,94.50
2017-12-13 08:00,8.60,6.254,6.6113,94.60
2017-12-13 09:00,8.60,6.257,6.6137,94.60
2017-12-13 10:00,8.63,6.252,6.6090,94.60
2017-12-13 11:00,8.66,6.223,6.6061,94.20
2017-12-13 12:00,8.70,6.160,6.6026,93.30
2017-12-13 13:00,8.68,6.205,6.6011,94.00
2017-12-13 14:00,8.68,6.187,6.6031,93.70
2017-12-13 15:00,8.64,6.210,6.6059,94.00
2017-12-13 16:00,,,,
2017-12-13 17:00,8.64,6.165,6.6074,93.30
2017-12-13 18:00,8.57,6.266,6.6162,94.70
2017-12-13 19:00,8.60,6.160,6.6168,93.10
2017-12-13 20:00,8.52,6.272,6.6233,94.70
2017-12-13 21:00,8.55,6.254,6.6253,94.40
2017-12-13 22:00,8.57,6.241,6.6181,94.30
2017-12-13 23:00,8.57,6.214,6.6177,93.90
2017-12-14 00:00,8.53,6.192,6.6220,93.50
2017-12-14 01:00,8.46,6.201,6.6387,93.40
2017-12-14 02:00,8.52,6.189,6.6267,93.40
2017-12-14 03:00,8.49,6.169,6.6264,93.10
2017-12-14 04:00,8.27,6.180,6.6599,92.80
2017-12-14 05:00,8.30,6.075,6.6614,91.20
2017-12-14 06:00,8.29,6.102,6.6616,91.60
2017-12-14 07:00,8.17,6.124,6.6788,91.70
2017-12-14 08:00,8.20,6.124,6.6715,91.80
2017-12-14 09:00,8.23,6.140,6.6668,92.10
2017-12-14 10:00,8.31,6.120,6.6594,91.90
2017-12-14 11:00,8.41,6.169,6.6407,92.90
2017-12-14 12:00,8.28,6.062,6.6612,91.00
2017-12-14 13:00,8.22,5.983,6.6704,89.70
2017-12-14 14:00,8.23,6.019,6.6658,90.30
2017-12-14 15:00,8.28,6.073,6.6589,91.20
2017-12-14 16:00,8.26,6.131,6.6643,92.00
2017-12-14 17:00,8.43,6.266,6.6372,94.40
2017-12-14 18:00,8.51,6.216,6.6271,93.80
2017-12-14 19:00,8.54,6.198,6.6221,93.60
2017-12-14 20:00,8.56,6.189,6.6196,93.50
2017-12-14 21:00,8.60,6.154,6.6167,93.00
2017-12-14 22:00,8.54,6.205,6.6222,93.70
2017-12-14 23:00,8.39,6.310,6.6424,95.00
2017-12-15 00:00,8.41,6.292,6.6445,94.70
2017-12-15 01:00,8.38,6.317,6.6425,95.10
2017-12-15 02:00,8.49,6.210,6.6341,93.60
2017-12-15 03:00,8.45,6.250,6.6346,94.20
2017-12-15 04:00,8.26,6.357,6.6639,95.40
2017-12-15 05:00,8.32,6.317,6.6565,94.90
2017-12-15 06:00,8.23,6.360,6.6732,95.30
2017-12-15 07:00,,,,
2017-12-15 08:00,,,,
2017-12-15 09:00,8.20,6.346,6.6731,95.10
2017-12-15 10:00,8.26,6.324,6.6636,94.90
2017-12-15 11:00,8.23,6.333,6.6730,94.90
2017-12-15 12:00,8.19,6.348,6.6755,95.10
2017-12-15 13:00,8.18,6.351,6.6778,95.10
2017-12-15 14:00,8.19,6.337,6.6777,94.90
2017-12-15 15:00,8.17,6.357,6.6779,95.20
2017-12-15 16:00,8.21,6.330,6.6706,94.90
2017-12-15 17:00,8.19,6.353,6.6732,95.20
2017-12-15 18:00,8.19,6.357,6.6779,95.20
2017-12-15 19:00,8.20,6.310,6.6705,94.60
2017-12-15 20:00,8.17,6.375,6.6826,95.40
2017-12-15 21:00,8.27,6.205,6.6649,93.10
2017-12-15 22:00,8.22,6.234,6.6675,93.50
2017-12-15 23:00,8.28,6.178,6.6647,92.70
2017-12-16 00:00,8.09,6.259,6.6867,93.60
2017-12-16 01:00,8.17,6.236,6.6771,93.40
2017-12-16 02:00,8.17,6.232,6.6794,93.30
2017-12-16 03:00,8.14,6.272,6.6868,93.80
2017-12-16 04:00,8.10,6.266,6.6868,93.70
2017-12-16 05:00,8.13,6.324,6.6847,94.60
2017-12-16 06:00,8.15,6.234,6.6818,93.30
2017-12-16 07:00,8.09,6.337,6.6918,94.70
2017-12-16 08:00,8.22,6.171,6.6718,92.50
2017-12-16 09:00,8.08,6.212,6.6937,92.80
2017-12-16 10:00,7.99,6.216,6.7058,92.70
2017-12-16 11:00,8.09,6.180,6.6888,92.40
2017-12-16 12:00,7.99,6.223,6.7058,92.80
2017-12-16 13:00,7.99,6.234,6.7034,93.00
2017-12-16 14:00,8.02,6.194,6.7033,92.40
2017-12-16 15:00,8.02,6.194,6.7033,92.40
2017-12-16 16:00,8.01,6.223,6.7058,92.80
2017-12-16 17:00,8.01,6.261,6.7035,93.40
2017-12-16 18:00,7.99,6.295,6.7035,93.90
2017-12-16 19:00,7.95,6.315,6.7107,94.10
2017-12-16 20:00,7.92,6.324,6.7202,94.10
2017-12-16 21:00,7.97,6.295,6.7107,93.80
2017-12-16 22:00,7.99,6.268,6.7035,93.50
2017-12-16 23:00,8.00,6.250,6.7058,93.20
2017-12-17 00:00,7.98,6.279,6.7083,93.60
2017-12-17 01:00,7.97,6.299,6.7083,93.90
2017-12-17 02:00,7.97,6.335,6.7107,94.40
2017-12-17 03:00,8.02,6.313,6.7012,94.20
2017-12-17 04:00,8.02,6.326,6.7012,94.40
2017-12-17 05:00,7.98,6.337,6.7060,94.50
2017-12-17 06:00,7.96,6.373,6.7084,95.00
2017-12-17 07:00,7.94,6.375,6.7178,94.90
2017-12-17 08:00,7.88,6.400,6.7225,95.20
2017-12-17 09:00,7.86,6.369,6.7249,94.70
2017-12-17 10:00,7.82,6.402,6.7320,95.10
2017-12-17 11:00,7.81,6.404,6.7343,95.10
2017-12-17 12:00,7.81,6.398,6.7343,95.00
2017-12-17 13:00,7.82,6.395,6.7320,95.00
2017-12-17 14:00,7.84,6.380,6.7297,94.80
2017-12-17 15:00,7.87,6.369,6.7249,94.70
2017-12-17 16:00,7.87,6.384,6.7273,94.90
2017-12-17 17:00,7.85,6.393,6.7296,95.00
2017-12-17 18:00,7.80,6.409,6.7320,95.20
2017-12-17 19:00,7.80,6.422,6.7319,95.40
2017-12-17 20:00,7.93,6.333,6.7155,94.30
2017-12-17 21:00,7.89,6.380,6.7226,94.90
2017-12-17 22:00,7.89,6.351,6.7202,94.50
2017-12-17 23:00,7.87,6.380,6.7226,94.90
2017-12-18 00:00,7.87,6.371,6.7202,94.80
2017-12-18 01:00,7.89,6.355,6.7178,94.60
2017-12-18 02:00,7.88,6.344,6.7273,94.30
2017-12-18 03:00,7.84,6.362,6.7249,94.60
2017-12-18 04:00,7.86,6.353,6.7297,94.40
2017-12-18 05:00,7.84,6.364,6.7273,94.60
2017-12-18 06:00,7.87,6.351,6.7273,94.40
2017-12-18 07:00,7.84,6.369,6.7249,94.70
2017-12-18 08:00,7.85,6.351,6.7273,94.40
2017-12-18 09:00,7.87,6.333,6.7226,94.20
2017-12-18 10:00,7.88,6.328,6.7178,94.20
2017-12-18 11:00,7.88,6.330,6.7202,94.20
2017-12-18 12:00,7.87,6.326,6.7226,94.10
2017-12-18 13:00,7.85,6.346,6.7297,94.30
2017-12-18 14:00,7.85,6.348,6.7321,94.30
2017-12-18 15:00,7.84,6.339,6.7297,94.20
2017-12-18 16:00,7.83,6.346,6.7297,94.30
2017-12-18 17:00,7.83,6.348,6.7321,94.30
2017-12-18 18:00,7.83,6.346,6.7297,94.30
2017-12-18 19:00,7.84,6.346,6.7297,94.30
2017-12-18 20:00,7.85,6.335,6.7250,94.20
2017-12-18 21:00,7.85,6.337,6.7274,94.20
2017-12-18 22:00,7.87,6.319,6.7226,94.00
2017-12-18 23:00,7.86,6.335,6.7250,94.20
2017-12-19 00:00,7.86,6.330,6.7274,94.10
2017-12-19 01:00,7.85,6.339,6.7297,94.20
2017-12-19 02:00,7.82,6.339,6.7297,94.20
2017-12-19 03:00,7.77,6.369,6.7392,94.50
2017-12-19 04:00,7.77,6.380,6.7368,94.70
2017-12-19 05:00,7.81,6.346,6.7297,94.30
2017-12-19 06:00,7.78,6.364,6.7416,94.40
2017-12-19 07:00,7.76,6.384,6.7415,94.70
2017-12-19 08:00,7.79,6.351,6.7345,94.30
2017-12-19 09:00,7.78,6.369,6.7392,94.50
2017-12-19 10:00,7.81,6.337,6.7345,94.10
2017-12-19 11:00,7.83,6.321,6.7322,93.90
2017-12-19 12:00,7.88,6.259,6.7227,93.10
2017-12-19 13:00,7.90,6.218,6.7227,92.50
2017-12-19 14:00,7.79,6.283,6.7346,93.30
2017-12-19 15:00,7.78,6.297,6.7418,93.40
2017-12-19 16:00,7.79,6.299,6.7370,93.50
2017-12-19 17:00,7.77,6.290,6.7418,93.30
2017-12-19 18:00,7.79,6.297,6.7346,93.50
2017-12-19 19:00,7.80,6.290,6.7346,93.40
2017-12-19 20:00,7.83,6.286,6.7298,93.40
2017-12-19 21:00,7.85,6.248,6.7251,92.90
2017-12-19 22:00,7.88,6.241,6.7251,92.80
2017-12-19 23:00,7.85,6.270,6.7275,93.20
2017-12-20 00:00,7.81,6.304,6.7346,93.60
2017-12-20 01:00,7.83,6.239,6.7299,92.70
2017-12-20 02:00,7.85,6.266,6.7299,93.10
2017-12-20 03:00,7.84,6.225,6.7299,92.50
2017-12-20 04:00,7.87,6.230,6.7275,92.60
2017-12-20 05:00,7.85,6.225,6.7299,92.50
2017-12-20 06:00,7.85,6.241,6.7251,92.80
2017-12-20 07:00,7.85,6.239,6.7299,92.70
2017-12-20 08:00,7.82,6.268,6.7323,93.10
2017-12-20 09:00,7.73,6.315,6.7466,93.60
2017-12-20 10:00,7.74,6.321,6.7393,93.80
2017-12-20 11:00,7.81,6.299,6.7370,93.50
2017-12-20 12:00,7.81,6.313,6.7370,93.70
2017-12-20 13:00,7.82,6.310,6.7274,93.80
2017-12-20 14:00,7.82,6.315,6.7322,93.80
2017-12-20 15:00,7.81,6.321,6.7322,93.90
2017-12-20 16:00,7.82,6.313,6.7298,93.80
2017-12-20 17:00,7.83,6.308,6.7322,93.70
2017-12-20 18:00,7.79,6.308,6.7322,93.70
2017-12-20 19:00,7.76,6.319,6.7441,93.70
2017-12-20 20:00,7.80,6.313,6.7370,93.70
2017-12-20 21:00,7.79,6.321,6.7393,93.80
2017-12-20 22:00,7.77,6.330,6.7417,93.90
2017-12-20 23:00,7.83,6.286,6.7298,93.40
2017-12-21 00:00,7.83,6.286,6.7298,93.40
2017-12-21 01:00,7.84,6.277,6.7274,93.30
2017-12-21 02:00,7.83,6.257,6.7275,93.00
2017-12-21 03:00,7.83,6.259,6.7299,93.00
2017-12-21 04:00,7.83,6.254,6.7323,92.90
2017-12-21 05:00,,,,
2017-12-21 06:00,,,,
2017-12-21 07:00,7.82,6.283,6.7346,93.30
2017-12-21 08:00,,,,
2017-12-21 09:00,7.79,6.304,6.7346,93.60
2017-12-21 10:00,7.83,6.241,6.7323,92.70
2017-12-21 11:00,7.82,6.248,6.7323,92.80
2017-12-21 12:00,7.83,6.232,6.7299,92.60
2017-12-21 13:00,7.84,6.230,6.7275,92.60
2017-12-21 14:00,7.84,6.230,6.7275,92.60
2017-12-21 15:00,7.83,6.241,6.7323,92.70
2017-12-21 16:00,7.84,6.227,6.7251,92.60
2017-12-21 17:00,7.85,6.227,6.7251,92.60
2017-12-21 18:00,7.84,6.227,6.7251,92.60
2017-12-21 19:00,7.84,6.234,6.7324,92.60
2017-12-21 20:00,7.84,6.230,6.7275,92.60
2017-12-21 21:00,7.79,6.288,6.7394,93.30
2017-12-21 22:00,7.80,6.248,6.7323,92.80
2017-12-21 23:00,7.72,6.330,6.7489,93.80
2017-12-22 00:00,,,,
2017-12-22 01:00,7.83,6.207,6.7324,92.20
2017-12-22 02:00,7.84,6.210,6.7275,92.30
2017-12-22 03:00,7.82,6.239,6.7299,92.70
2017-12-22 04:00,7.84,6.225,6.7299,92.50
2017-12-22 05:00,7.76,6.279,6.7443,93.10
2017-12-22 06:00,7.85,6.196,6.7276,92.10
2017-12-22 07:00,7.87,6.185,6.7227,92.00
2017-12-22 08:00,7.80,6.259,6.7371,92.90
2017-12-22 09:00,7.76,6.270,6.7419,93.00
2017-12-22 10:00,7.74,6.304,6.7490,93.40
2017-12-22 11:00,7.74,6.288,6.7467,93.20
2017-12-22 12:00,7.85,6.183,6.7276,91.90
2017-12-22 13:00,7.86,6.167,6.7252,91.70
2017-12-22 14:00,7.86,6.180,6.7252,91.90
2017-12-22 15:00,7.80,6.245,6.7372,92.70
2017-12-22 16:00,,,,
2017-12-22 17:00,7.82,6.223,6.7348,92.40
2017-12-22 18:00,7.84,6.221,6.7324,92.40
2017-12-22 19:00,7.84,6.214,6.7324,92.30
2017-12-22 20:00,7.85,6.192,6.7227,92.10
2017-12-22 21:00,7.66,6.283,6.7564,93.00
2017-12-22 22:00,7.83,6.201,6.7251,92.20
2017-12-22 23:00,7.74,6.295,6.7466,93.30
2017-12-23 00:00,7.79,6.250,6.7347,92.80
2017-12-23 01:00,7.86,6.169,6.7276,91.70
2017-12-23 02:00,7.85,6.178,6.7300,91.80
2017-12-23 03:00,7.85,6.174,6.7252,91.80
2017-12-23 04:00,7.79,6.216,6.7348,92.30
2017-12-23 05:00,7.50,6.288,6.7758,92.80
2017-12-23 06:00,7.45,6.351,6.7848,93.60
2017-12-23 07:00,7.43,6.389,6.7965,94.00
2017-12-23 08:00,,,,
2017-12-23 09:00,7.66,6.272,6.7589,92.80
2017-12-23 10:00,7.74,6.218,6.7446,92.20
2017-12-23 11:00,7.66,6.297,6.7563,93.20
2017-12-23 12:00,7.47,6.382,6.7893,94.00
2017-12-23 13:00,7.45,6.398,6.7915,94.20
2017-12-23 14:00,7.57,6.348,6.7680,93.80
2017-12-23 15:00,7.66,6.290,6.7563,93.10
2017-12-23 16:00,7.73,6.277,6.7419,93.10
2017-12-23 17:00,7.55,6.375,6.7750,94.10
2017-12-23 18:00,7.53,6.371,6.7774,94.00
2017-12-23 19:00,7.51,6.380,6.7797,94.10
2017-12-23 20:00,7.51,6.382,6.7821,94.10
2017-12-23 21:00,7.49,6.382,6.7821,94.10
2017-12-23 22:00,7.47,6.384,6.7845,94.10
2017-12-23 23:00,7.45,6.393,6.7868,94.20
2017-12-24 00:00,,,,
2017-12-24 01:00,7.43,6.398,6.7915,94.20
2017-12-24 02:00,7.43,6.398,6.7915,94.20
2017-12-24 03:00,7.42,6.402,6.7963,94.20
2017-12-24 04:00,7.41,6.398,6.7915,94.20
2017-12-24 05:00,7.40,6.389,6.7965,94.00
2017-12-24 06:00,7.37,6.395,6.8036,94.00
2017-12-24 07:00,7.36,6.398,6.7988,94.10
2017-12-24 09:00,7.37,6.395,6.8036,94.00
2017-12-24 10:00,7.37,6.393,6.8012,94.00
2017-12-24 11:00,7.42,6.377,6.7918,93.90
2017-12-24 12:00,7.40,6.384,6.7989,93.90
2017-12-24 13:00,7.38,6.389,6.8037,93.90
2017-12-24 14:00,7.40,6.380,6.7942,93.90
2017-12-24 15:00,7.34,6.393,6.8085,93.90
2017-12-24 16:00,,,,
2017-12-24 17:00,7.10,6.391,6.8425,93.40
2017-12-24 18:00,6.99,6.384,6.8573,93.10
2017-12-24 19:00,6.84,6.404,6.8864,93.00
2017-12-24 20:00,6.94,6.346,6.8681,92.40
2017-12-24 21:00,7.03,6.313,6.8540,92.10
2017-12-24 22:00,7.05,6.288,6.8496,91.80
2017-12-24 23:00,7.10,6.277,6.8448,91.70
2017-12-25 00:00,7.07,6.304,6.8443,92.10
2017-12-25 01:00,7.02,6.330,6.8586,92.30
2017-12-25 02:00,6.97,6.357,6.8654,92.60
2017-12-25 03:00,6.99,6.344,6.8657,92.40
2017-12-25 04:00,7.02,6.362,6.8554,92.80
2017-12-25 05:00,7.06,6.355,6.8481,92.80
2017-12-25 06:00,7.11,6.290,6.8445,91.90
2017-12-25 07:00,7.19,6.263,6.8302,91.70
2017-12-25 08:00,,,,
2017-12-25 09:00,7.10,6.382,6.8402,93.30
2017-12-25 10:00,6.95,6.438,6.8635,93.80
2017-12-25 11:00,6.90,6.451,6.8778,93.80
2017-12-25 12:00,6.88,6.458,6.8776,93.90
2017-12-25 13:00,6.87,6.460,6.8800,93.90
2017-12-25 14:00,6.87,6.465,6.8774,94.00
2017-12-25 15:00,6.87,6.474,6.8797,94.10
2017-12-25 16:00,6.75,6.539,6.8974,94.80
2017-12-25 17:00,6.74,6.523,6.9027,94.50
2017-12-25 18:00,6.73,6.516,6.9029,94.40
2017-12-25 19:00,6.75,6.516,6.9029,94.40
2017-12-25 20:00,6.74,6.548,6.8995,94.90
2017-12-25 21:00,6.79,6.534,6.8926,94.80
2017-12-25 22:00,6.99,6.342,6.8632,92.40
2017-12-25 23:00,7.07,6.377,6.8501,93.10
2017-12-26 00:00,7.10,6.442,6.8463,94.10
2017-12-26 01:00,7.17,6.416,6.8323,93.90
2017-12-26 02:00,7.16,6.429,6.8321,94.10
2017-12-26 03:00,7.15,6.438,6.8343,94.20
2017-12-26 04:00,7.15,6.454,6.8364,94.40
2017-12-26 05:00,7.15,6.436,6.8319,94.20
2017-12-26 06:00,7.19,6.393,6.8303,93.60
2017-12-26 07:00,7.13,6.442,6.8391,94.20
2017-12-26 08:00,7.20,6.380,6.8305,93.40
2017-12-26 09:00,7.24,6.187,6.8215,90.70
2017-12-26 10:00,7.13,6.301,6.8418,92.10
2017-12-26 11:00,7.08,6.346,6.8459,92.70
2017-12-26 12:00,7.09,6.328,6.8413,92.50
2017-12-26 13:00,7.05,6.380,6.8525,93.10
2017-12-26 14:00,7.04,6.382,6.8549,93.10
2017-12-26 15:00,7.03,6.386,6.8524,93.20
2017-12-26 16:00,7.03,6.389,6.8548,93.20
2017-12-26 17:00,7.05,6.369,6.8552,92.90
2017-12-26 18:00,7.03,6.391,6.8572,93.20
2017-12-26 19:00,7.08,6.355,6.8481,92.80
2017-12-26 20:00,7.07,6.369,6.8479,93.00
2017-12-26 21:00,7.12,6.330,6.8437,92.50
2017-12-26 22:00,7.14,6.317,6.8366,92.40
2017-12-26 23:00,7.05,6.409,6.8470,93.60
2017-12-27 00:00,7.02,6.431,6.8563,93.80
2017-12-27 01:00,7.00,6.438,6.8562,93.90
2017-12-27 02:00,7.00,6.436,6.8611,93.80
2017-12-27 03:00,7.00,6.422,6.8614,93.60
2017-12-27 04:00,6.96,6.449,6.8681,93.90
2017-12-27 05:00,6.97,6.436,6.8611,93.80
2017-12-27 06:00,6.91,6.467,6.8725,94.10
2017-12-27 07:00,7.00,6.409,6.8617,93.40
2017-12-27 08:00,7.05,6.373,6.8527,93.00
2017-12-27 09:00,7.07,6.351,6.8507,92.70
2017-12-27 10:00,7.09,6.351,6.8433,92.80
2017-12-27 11:00,7.10,6.351,6.8433,92.80
2017-12-27 12:00,7.06,6.366,6.8455,93.00
2017-12-27 13:00,7.02,6.386,6.8598,93.10
2017-12-27 14:00,6.91,6.433,6.8733,93.60
2017-12-27 15:00,6.65,6.534,6.9145,94.50
2017-12-27 16:00,6.62,6.557,6.9236,94.70
2017-12-27 17:00,6.61,6.566,6.9257,94.80
2017-12-27 18:00,6.61,6.581,6.9203,95.10
2017-12-27 19:00,6.66,6.552,6.9188,94.70
2017-12-27 20:00,6.77,6.478,6.8991,93.90
2017-12-27 21:00,6.67,6.548,6.9141,94.70
2017-12-27 22:00,6.64,6.575,6.9206,95.00
2017-12-27 23:00,6.63,6.581,6.9203,95.10
2017-12-28 00:00,6.63,6.583,6.9154,95.20
2017-12-28 01:00,6.61,6.590,6.9225,95.20
2017-12-28 02:00,6.66,6.592,6.9176,95.30
2017-12-28 03:00,6.79,6.570,6.8941,95.30
2017-12-28 04:00,6.80,6.561,6.8919,95.20
2017-12-28 05:00,6.75,6.552,6.9043,94.90
2017-12-28 06:00,6.73,6.566,6.9039,95.10
2017-12-28 07:00,6.71,6.563,6.9088,95.00
2017-12-28 08:00,6.68,6.572,6.9109,95.10
2017-12-28 09:00,6.72,6.563,6.9088,95.00
2017-12-28 10:00,6.71,6.566,6.9039,95.10
2017-12-28 11:00,6.69,6.570,6.9086,95.10
2017-12-28 12:00,6.68,6.572,6.9109,95.10
2017-12-28 13:00,6.65,6.575,6.9133,95.10
2017-12-28 14:00,6.57,6.592,6.9321,95.10
2017-12-28 15:00,6.48,6.604,6.9439,95.10
2017-12-28 16:00,6.40,6.624,6.9578,95.20
2017-12-28 17:00,6.42,6.626,6.9528,95.30
2017-12-28 18:00,6.44,6.635,6.9549,95.40
2017-12-28 19:00,6.42,6.644,6.9497,95.60
2017-12-28 20:00,6.39,6.646,6.9594,95.50
2017-12-28 21:00,6.40,6.646,6.9521,95.60
2017-12-28 22:00,6.45,6.637,6.9500,95.50
2017-12-28 23:00,6.50,6.633,6.9380,95.60
2017-12-29 00:00,6.53,6.631,6.9357,95.60
2017-12-29 01:00,6.52,6.628,6.9333,95.60
2017-12-29 02:00,6.47,6.639,6.9450,95.60
2017-12-29 03:00,6.45,6.644,6.9497,95.60
2017-12-29 04:00,6.42,6.648,6.9544,95.60
2017-12-29 05:00,6.39,6.651,6.9568,95.60
2017-12-29 06:00,6.41,6.648,6.9544,95.60
2017-12-29 07:00,6.41,6.646,6.9521,95.60
2017-12-29 08:00,6.41,6.648,6.9544,95.60
2017-12-29 09:00,6.42,6.642,6.9547,95.50
2017-12-29 10:00,6.40,6.648,6.9544,95.60
2017-12-29 11:00,6.42,6.646,6.9521,95.60
2017-12-29 12:00,6.40,6.648,6.9544,95.60
2017-12-29 13:00,6.40,6.646,6.9594,95.50
2017-12-29 14:00,6.43,6.637,6.9500,95.50
2017-12-29 15:00,6.45,6.633,6.9526,95.40
2017-12-29 16:00,6.48,6.619,6.9458,95.30
2017-12-29 17:00,6.47,6.628,6.9479,95.40
2017-12-29 18:00,6.48,6.613,6.9387,95.30
2017-12-29 19:00,6.53,6.610,6.9364,95.30
2017-12-29 20:00,6.56,6.606,6.9317,95.30
2017-12-29 21:00,6.49,6.608,6.9413,95.20
2017-12-29 22:00,6.51,6.613,6.9387,95.30
2017-12-29 23:00,6.53,6.619,6.9385,95.40
2017-12-30 00:00,6.52,6.622,6.9336,95.50
2017-12-30 01:00,6.52,6.622,6.9336,95.50
2017-12-30 02:00,6.51,6.624,6.9359,95.50
2017-12-30 03:00,6.54,6.617,6.9361,95.40
2017-12-30 04:00,6.56,6.613,6.9314,95.40
2017-12-30 05:00,6.55,6.610,6.9364,95.30
2017-12-30 06:00,6.52,6.613,6.9387,95.30
2017-12-30 07:00,6.53,6.608,6.9340,95.30
2017-12-30 08:00,6.52,6.613,6.9387,95.30
2017-12-30 09:00,6.52,6.610,6.9364,95.30
2017-12-30 10:00,6.52,6.610,6.9364,95.30
2017-12-30 11:00,6.49,6.617,6.9434,95.30
2017-12-30 12:00,6.51,6.604,6.9366,95.20
2017-12-30 13:00,6.45,6.610,6.9510,95.10
2017-12-30 14:00,6.43,6.597,6.9514,94.90
2017-12-30 15:00,6.40,6.613,6.9533,95.10
2017-12-30 16:00,6.46,6.597,6.9441,95.00
2017-12-30 17:00,6.47,6.619,6.9458,95.30
2017-12-30 18:00,6.47,6.622,6.9481,95.30
2017-12-30 19:00,6.47,6.617,6.9434,95.30
2017-12-30 20:00,6.47,6.619,6.9458,95.30
2017-12-30 21:00,6.46,6.622,6.9481,95.30
2017-12-30 22:00,6.45,6.628,6.9479,95.40
2017-12-30 23:00,6.46,6.615,6.9484,95.20
2017-12-31 00:00,6.45,6.608,6.9486,95.10
2017-12-31 01:00,6.34,6.622,6.9701,95.00
2017-12-31 02:00,6.35,6.608,6.9632,94.90
2017-12-31 03:00,6.37,6.624,6.9651,95.10
2017-12-31 04:00,6.40,6.613,6.9533,95.10
2017-12-31 05:00,6.40,6.631,6.9575,95.30
2017-12-31 06:00,6.36,6.653,6.9664,95.50
2017-12-31 07:00,6.36,6.653,6.9591,95.60
2017-12-31 08:00,6.39,6.633,6.9599,95.30
2017-12-31 09:00,6.44,6.597,6.9514,94.90
2017-12-31 10:00,6.38,6.624,6.9578,95.20
2017-12-31 11:00,6.38,6.617,6.9580,95.10
2017-12-31 12:00,6.37,6.601,6.9635,94.80
2017-12-31 13:00,6.36,6.608,6.9632,94.90
2017-12-31 14:00,6.31,6.615,6.9703,94.90
2017-12-31 15:00,6.29,6.613,6.9753,94.80
2017-12-31 16:00,6.32,6.610,6.9729,94.80
2017-12-31 17:00,6.30,6.635,6.9769,95.10
2017-12-31 18:00,6.30,6.633,6.9745,95.10
2017-12-31 19:00,6.18,6.695,6.9890,95.80
2017-12-31 20:00,6.16,6.689,6.9966,95.60
2017-12-31 21:00,6.07,6.720,7.0147,95.80
2017-12-31 22:00,6.06,6.720,7.0147,95.80
2017-12-31 23:00,6.05,6.711,7.0127,95.70
2018-01-01 00:00,6.07,6.709,7.0103,95.70
2018-01-01 01:00,6.24,6.637,6.9866,95.00